Powrót do katalogu

COSMOS 1249 COOLANT *

AktywnyLEO
NORAD 29444·DEBRIS·🇷🇺 Russia

Wystrzelony Mar 5, 1981 z Baikonur Cosmodrome

Loading…

Następne Przeloty (najbliższe 24 godziny)

TLE

ŚwieżeSource: Space-Track

Epoka: Sep 13, 2026, 10:06 UTC

1 29444U 81021W   26256.42134156  .00000055  00000-0  11551-3 0  9998
2 29444  64.9628 186.6788 0063600 240.7792 118.6901 13.90135193616464

Śledź COSMOS 1249 COOLANT * w czasie rzeczywistym z AllMySat

Download on the App Store